Regional Weather Roundup
Issued by NWS Mobile, AL

Home | Current Version | Previous Version | Text Only | Print | Product List | Glossary On
Versions: 1 2 3 4 5 6 7 8 9 10 11 12 13 14 15 16 17 18 19 20 21 22 23 24 25 26 27 28 29 30 31 32 33 34 35 36 37 38 39 40 41 42 43 44 45 46 47 48 49 50
000
ASUS44 KMOB 311915
RWRMOB
REGIONAL WEATHER ROUNDUP
NATIONAL WEATHER SERVICE MOBILE AL
200 PM CDT MON AUG 31 2015

ALZ061>064-312000-
COASTAL ALABAMA


CITY           SKY/WX    TMP DP  RH WIND       PRES   REMARKS
MOBILE REG APT PTSUNNY   92  66  42 VRB3      30.06F
BROOKLEY FIELD FAIR      91  69  48 SE7       30.06F HX  96
GULF SHORES    PTCLDY    89  72  56 S7        30.04F HX  96

$$

ALZ051>060-312000-
INTERIOR SOUTHWEST AND SOUTH CENTRAL ALABAMA


CITY           SKY/WX    TMP DP  RH WIND       PRES   REMARKS
ANDALUSIA/OPP  SUNNY     96  67  38 N6        30.05F HX 100
EVERGREEN      SUNNY     92  67  43 NW6       30.05F HX  95
FLORALA        PTCLDY    91  67  44 NE5       30.07F
GREENVILLE     FAIR      89  66  46 N6        30.06F

$$

FLZ001>006-312000-
WESTERN FLORIDA PANHANDLE


CITY           SKY/WX    TMP DP  RH WIND       PRES   REMARKS
CRESTVIEW      MOSUNNY   93  69  45 N7        30.05F HX  98
DESTIN         SUNNY     90  71  53 VRB7      30.04F HX  96
DUKE FIELD     MOSUNNY   92  65  39 N8        30.04F
MARY ESTHER    SUNNY     88  70  55 S10       30.03F
MILTON         PTCLDY    95  69  42 N5        30.04F HX 100
PENSACOLA      MOSUNNY   91  64  40 VRB5      30.04F
NAS PENSACOLA  MOSUNNY   89  72  56 S8        30.04F HX  96
VALPARAISO     MOSUNNY   93  69  45 S7        30.03F HX  98

$$

...MARINE OBSERVATIONS...

STATION/POSITION TIME  SKY/WX   TEMP    WIND        PRES    VSBY
                                AIR SEA DIR/SP/G
                 (UTC)          (F)     (DEG/KT/KT) (MB)    (MI)
PASCAGOULA       1800            86     170/  9/ 11 1018.0F
PETIT BOIS ISL   1800            87      90/  7/  9 1018.7F
E DAUPHIN ISLAND 1900            85      20/  2/  2 1017.5F
MIDDLE BAY LIGHT 1800                    50/  2     1017.3F
USCG MOBILE BAY  1800            87 84  150/  5/  8 1016.9F
STATE DOCKS      1800            91 85              1017.5F
MEAHER PARK      1800            87     300/  4     1016.6F
FORT MORGAN      1800            85      20/  5/  6 1017.7F
12 S ORANGE BCH  1850            83 87  110/  2/  4 1017.2F
WVE H/P(F/S)=  1/ 7

PENSACOLA BAY    1800            91 84  110/  1/  4 1017.9F
64 S DAUPHIN ISL 1850            83 87   40/  8/ 12 1017.7F
WVE H/P(F/S)=  1/ 5

115 SE PENSACOLA 1850            85 86   30/ 12/ 14 1017.2F
WVE H/P(F/S)=  1/ 5

MID GULF/42001   1900            85 86   60/  8/ 10 1016.5F
EAST GULF/42003  1850            85 87   10/ 12/ 14 1015.4F
WVE H/P(F/S)=  2/ 4


$$

...NEARBY LOCATIONS

CITY           SKY/WX    TMP DP  RH WIND       PRES   REMARKS
GULFPORT       MOSUNNY   91  65  41 S7        30.04F
BILOXI         SUNNY     93  67  41 S10       30.04F HX  96
PASCAGOULA     SUNNY     93  67  42 VRB3      30.04F HX  96
HATTIESBURG    MOSUNNY   93  62  35 CALM      30.05F
LAUREL         MOSUNNY   93  61  33 SE6       30.07F
MERIDIAN       SUNNY     91  66  43 VRB6      30.05F
MERIDIAN NAS   MOSUNNY   91  65  41 N6        30.06F
MONTGOMERY     MOSUNNY   91  67  44 NW12      30.06F
MAXWELL AFB    MOSUNNY   88  69  54 NW5       30.06F
TROY           MOSUNNY   90  70  51 MISG      30.08F HX  95
FORT RUCKER    MOSUNNY   92  69  47 VRB5      30.04F HX  97
DALEVILLE      MOSUNNY   89  70  52 N7        30.05F
DOTHAN         MOSUNNY   88  70  55 N7        30.10F

$$

...OTHER SURROUNDING LOCATIONS...

CITY           SKY/WX    TMP DP  RH WIND       PRES   REMARKS
BIRMINGHAM     MOSUNNY   80  68  66 N7        30.12F
TUSCALOOSA     MOSUNNY   85  68  56 N8        30.08F
COLUMBUS GA    PTSUNNY   86  64  47 NE7       30.07F
PANAMA CITY    NOT AVBL
TALLAHASSEE    MOSUNNY   92  72  51 NE8       30.04F HX  99
BATON ROUGE    CLOUDY    90  71  53 CALM      30.06S HX  96
NEW ORLEANS    MOSUNNY   92  65  40 NE8       30.05F
SLIDELL        SUNNY     92  66  42 VRB3      30.03F
JACKSON        PTSUNNY   96  61  31 N7        30.04F HX  96
MCCOMB         CLOUDY    91  65  41 VRB3      30.06F

$$

...SURROUNDING MARINE OBSERVATIONS...

STATION/POSITION TIME  SKY/WX   TEMP    WIND        PRES    VSBY
                                AIR SEA DIR/SP/G
                 (UTC)          (F)     (DEG/KT/KT) (MB)    (MI)
WAVELAND         1800            85 83  150/  6/  9 1018.2F
PASCAGOULA RGN A 1800            89     170/  7/ 10 1017.5F
PASCAGOULA PORT  1800               85                N/A
GRAND ISLE       1800            87 86   80/  7/ 10 1018.2F
SOUTHWEST PASS   1900                                 N/A
PILOT STATION E  1800            91 87   70/ 12/ 13 1018.4F
SHELL BEACH      1800            83 85   30/  4/  5 1017.7F
PANAMA CITY      1800            90 85   20/  6/  8 1016.8F
APALACHICOLA     1800            83 85  130/  7/  9 1017.5F
TYNDALL TOWER C  1900            81      70/ 14/ 15 1017.1F
S APLCHCLA/42036 1850            85 87   50/ 10/ 12 1016.8R
WVE H/P(F/S)=  2/ 5


$$



USA.gov is the U.S. government's official web portal to all federal, state and local government web resources and services.